Date,TemperatureHighF,TemperatureAvgF,TemperatureLowF,DewpointHighF,DewpointAvgF,DewpointLowF,HumidityHigh,HumidityAvg,HumidityLow,PressureMaxIn,PressureMinIn,WindSpeedMaxMPH,WindSpeedAvgMPH,GustSpeedMaxMPH,PrecipitationSumIn
2014-1-1,47.6,36.7,27.1,29.0,26.2,23.0,91,67,44,30.46,30.20,5,2,10,0.00
2014-1-2,39.6,32.3,20.2,39.0,28.8,14.0,98,87,67,30.27,29.86,18,3,27,0.39
2014-1-3,28.1,20.5,14.4,12.0,8.9,7.0,78,62,42,30.60,30.28,14,2,19,0.00
2014-1-4,45.2,30.2,17.5,32.0,16.6,9.0,81,58,39,30.51,30.27,9,4,18,0.00
2014-1-5,57.0,42.6,29.7,50.0,34.4,19.0,95,74,58,30.28,29.71,22,6,41,0.24
2014-1-6,37.0,14.6,3.3,34.0,9.0,-6.0,96,79,54,30.59,29.85,22,8,25,0.01
2014-1-7,18.0,8.5,-0.7,6.0,-1.9,-8.0,81,63,48,30.78,30.59,10,2,15,0.00
2014-1-8,32.5,20.5,8.6,16.0,10.0,4.0,83,65,48,30.77,30.61,6,2,10,0.00
2014-1-9,46.8,35.2,26.9,25.0,19.7,14.0,67,54,41,30.65,30.45,7,2,10,0.00
2014-1-10,50.7,44.4,36.2,47.0,39.2,24.0,97,84,47,30.45,30.03,8,2,11,0.08
2014-1-11,59.2,50.8,43.2,54.0,44.1,32.0,99,81,38,30.04,29.70,26,7,32,0.98
2014-1-12,54.6,45.8,37.9,37.0,33.5,30.0,85,64,42,30.24,30.01,15,5,18,0.00
2014-1-13,44.5,41.6,35.9,41.0,35.8,30.0,97,81,60,30.19,29.95,8,3,14,0.17
2014-1-14,53.7,46.2,40.7,46.0,37.2,29.0,98,74,41,30.06,29.90,16,4,20,0.17
2014-1-15,44.3,36.2,26.9,34.0,27.3,16.0,94,71,47,30.18,30.01,14,3,16,0.01
2014-1-16,42.9,32.1,21.8,22.0,16.7,11.0,82,56,29,30.21,29.99,18,4,20,0.00
2014-1-17,39.6,33.8,23.5,26.0,20.4,10.0,67,59,45,30.19,29.97,24,10,36,0.00
2014-1-18,37.3,28.6,21.0,14.0,11.9,9.0,69,51,37,30.27,30.04,19,6,23,0.00
2014-1-19,46.1,39.8,36.0,28.0,22.9,13.0,62,52,37,30.17,30.00,18,7,25,0.00
2014-1-20,57.5,47.2,36.3,30.0,27.2,23.0,64,48,34,30.08,29.91,22,7,26,0.00
2014-1-21,49.6,34.7,15.8,30.0,22.4,7.0,74,62,47,30.17,29.77,18,6,29,0.00
2014-1-22,26.0,17.3,7.5,8.0,2.1,-2.0,82,53,35,30.32,30.17,9,2,20,0.00
2014-1-23,28.3,20.8,10.7,12.0,3.1,-5.0,64,47,31,30.73,30.32,12,4,18,0.00
2014-1-24,26.9,15.7,4.7,1.0,-2.5,-5.0,75,48,26,30.81,30.32,15,3,28,0.00
2014-1-25,35.1,28.5,21.7,19.0,7.7,-3.0,56,42,29,30.30,29.93,25,10,37,0.00
2014-1-26,52.0,39.4,24.5,29.0,19.9,9.0,56,46,39,30.09,29.90,24,7,34,0.00
2014-1-27,48.5,36.3,18.2,33.0,17.2,0.0,66,47,30,30.37,29.89,19,6,24,0.00
2014-1-28,18.5,15.4,11.0,13.0,5.9,-2.0,87,68,45,30.45,30.36,8,2,13,0.00
2014-1-29,26.2,15.0,5.1,2.0,-1.7,-5.0,71,50,30,30.58,30.44,8,2,11,0.00
2014-1-30,35.9,22.2,7.8,15.0,7.8,-1.0,79,56,37,30.51,30.27,9,3,13,0.00
2014-1-31,49.7,35.0,23.3,24.0,17.4,11.0,72,50,33,30.38,30.26,8,4,12,0.00
2014-2-1,57.4,44.7,31.2,44.0,28.2,20.0,83,55,27,30.28,30.13,17,6,18,0.00
2014-2-2,48.4,44.6,38.5,46.0,42.3,36.0,97,92,78,30.20,30.02,12,3,20,0.77
2014-2-3,40.6,38.0,33.9,39.0,35.7,33.0,98,91,82,30.33,29.94,14,4,25,1.22
2014-2-4,52.2,42.5,35.4,45.0,37.9,33.0,96,84,65,30.35,29.95,9,2,12,0.16
2014-2-5,48.5,39.3,26.2,48.0,35.1,19.0,98,85,72,30.42,29.86,25,9,33,0.14
2014-2-6,34.8,28.6,25.2,22.0,20.3,17.0,80,71,59,30.53,30.41,5,1,11,0.00
2014-2-7,40.6,30.7,24.7,24.0,21.7,20.0,85,70,50,30.54,30.38,5,1,10,0.00
2014-2-8,45.0,37.0,31.0,33.0,27.7,23.0,76,69,59,30.39,30.25,6,2,10,0.00
2014-2-9,44.3,39.9,35.3,38.0,34.6,32.0,87,81,75,30.28,30.15,14,4,19,0.00
2014-2-10,37.9,32.7,27.8,31.0,26.1,19.0,88,77,65,30.36,30.21,12,3,13,0.00
2014-2-11,44.5,32.8,25.4,22.0,16.9,10.0,75,55,28,30.44,30.34,6,2,11,0.00
2014-2-12,37.0,31.6,29.4,30.0,22.4,15.0,97,71,48,30.37,29.95,15,3,17,0.00
2014-2-13,43.7,35.3,28.7,35.0,30.9,27.0,97,84,61,29.94,29.87,22,4,25,0.29
2014-2-14,50.6,41.6,33.5,40.0,31.3,27.0,93,68,48,29.96,29.74,22,10,38,0.07
2014-2-15,41.2,32.8,26.5,39.0,23.6,16.0,93,70,47,30.24,29.74,17,4,21,0.01
2014-2-16,54.5,39.9,28.3,32.0,29.0,23.0,93,68,42,30.30,30.17,16,4,21,0.01
2014-2-17,39.8,14.3,33.8,31.0,-48.6,-99.9,82,31,68,30.33,30.04,6,-602,11,0.00
2014-2-18,-200.0,0.0,200.0,-99.9,-99.9,-99.9,0,0,100,30.36,30.03,0,-999,0,0.00
2014-2-19,69.0,39.6,59.0,58.0,-8.8,-99.9,91,35,45,30.09,29.91,22,-383,30,0.00
2014-2-20,71.4,62.5,51.9,58.0,50.4,41.0,85,65,49,30.07,29.82,23,8,33,0.00
2014-2-21,68.7,49.6,38.7,56.0,36.4,18.0,98,68,26,30.18,29.76,34,7,54,1.26
2014-2-22,66.0,52.2,37.9,30.0,22.5,17.0,61,34,16,30.29,30.10,10,4,16,0.00
2014-2-23,67.3,55.8,45.9,35.0,28.9,20.0,64,37,26,30.13,29.98,11,5,23,0.00
2014-2-24,51.2,41.5,30.8,35.0,20.5,11.0,81,48,21,30.32,30.13,8,2,16,0.00
2014-2-25,49.8,41.3,36.0,20.0,15.9,11.0,48,36,26,30.23,30.10,9,2,11,0.00
2014-2-26,38.9,32.7,25.5,21.0,15.7,9.0,69,51,34,30.16,30.02,9,2,17,0.00
2014-2-27,46.0,30.6,19.0,13.0,8.1,3.0,60,41,22,30.18,30.06,12,3,17,0.00
2014-2-28,52.2,38.7,24.9,17.0,12.5,8.0,53,36,22,30.30,30.18,6,2,10,0.00
2014-3-1,59.2,48.2,38.5,39.0,32.5,14.0,81,56,32,30.35,30.24,13,4,22,0.00
2014-3-2,68.2,55.3,48.8,52.0,44.8,38.0,94,69,55,30.28,29.97,14,4,24,0.02
2014-3-3,50.0,30.8,22.3,48.0,28.6,18.0,97,91,83,30.37,29.91,20,5,25,1.16
2014-3-4,41.5,31.5,22.4,32.0,25.9,18.0,89,80,67,30.38,30.28,6,1,7,0.00
2014-3-5,58.3,43.1,32.2,37.0,31.9,28.0,91,67,36,30.32,30.18,10,3,15,0.00
2014-3-6,54.8,45.4,37.1,30.0,25.7,21.0,70,48,30,30.25,30.10,20,4,23,0.00
2014-3-7,62.4,50.1,40.6,41.0,35.6,23.0,78,59,43,30.13,30.02,8,3,13,0.00
2014-3-8,67.5,55.9,43.5,41.0,36.7,31.0,81,52,30,30.20,30.08,13,4,20,0.00
2014-3-9,63.9,54.4,47.3,41.0,36.2,26.0,74,52,32,30.27,30.15,7,3,12,0.00
2014-3-10,68.1,55.1,43.5,45.0,37.4,26.0,73,53,37,30.18,29.94,13,5,20,0.00
2014-3-11,74.0,62.6,51.0,48.0,43.4,38.0,73,51,33,29.95,29.72,13,6,19,0.00
2014-3-12,66.5,53.4,32.6,58.0,45.9,28.0,95,77,52,30.04,29.47,29,8,47,0.07
2014-3-13,47.8,37.4,29.5,29.0,17.0,10.0,87,47,23,30.34,30.04,10,3,15,0.00
2014-3-14,61.1,47.7,31.4,34.0,23.2,13.0,63,40,26,30.36,30.11,29,6,31,0.00
2014-3-15,69.3,58.0,49.9,41.0,36.7,33.0,56,46,34,30.19,30.07,13,4,19,0.00
2014-3-16,57.3,50.3,43.1,49.0,42.0,35.0,97,76,45,30.06,29.72,9,3,21,0.49
2014-3-17,41.5,38.4,35.9,41.0,37.8,35.0,98,97,95,29.95,29.76,12,4,14,0.10
2014-3-18,58.4,46.3,38.1,46.0,41.9,38.0,98,85,61,30.10,29.93,10,3,13,0.00
2014-3-19,58.8,49.9,42.6,47.0,44.4,41.0,93,82,61,30.12,30.04,20,8,35,0.00
2014-3-20,62.4,50.8,39.8,47.0,30.2,20.0,95,51,21,30.25,30.12,10,3,15,0.00
2014-3-21,66.0,54.5,39.7,32.0,25.5,21.0,53,34,20,30.24,30.05,15,4,21,0.00
2014-3-22,70.8,60.9,53.3,42.0,34.4,27.0,45,37,30,30.10,30.03,14,6,19,0.00
2014-3-23,57.5,47.4,38.7,42.0,33.1,24.0,95,61,33,30.32,30.05,14,4,20,0.37
2014-3-24,55.2,42.5,30.3,24.0,20.2,15.0,69,44,23,30.36,30.11,8,2,16,0.00
2014-3-25,43.4,37.4,29.8,28.0,19.0,11.0,80,48,33,30.30,30.02,15,4,29,0.00
2014-3-26,48.1,35.6,24.5,15.0,12.1,10.0,58,40,24,30.48,30.30,13,2,15,0.00
2014-3-27,66.2,48.3,31.3,28.0,19.8,12.0,64,35,17,30.40,30.16,21,6,24,0.00
2014-3-28,63.1,57.8,54.0,56.0,49.6,28.0,92,76,32,30.18,30.07,14,5,19,0.04
2014-3-29,59.3,51.7,40.1,56.0,49.3,36.0,97,91,82,30.10,29.76,11,3,20,0.44
2014-3-30,61.4,46.9,35.9,36.0,30.4,26.0,90,58,27,30.28,30.11,11,4,20,0.00
2014-3-31,72.1,57.2,40.1,33.0,27.3,24.0,62,35,18,30.30,30.14,12,3,13,0.00
2014-4-1,79.4,66.5,50.7,47.0,37.0,28.0,55,35,27,30.19,30.06,12,5,19,0.00
2014-4-2,81.2,70.9,59.6,50.0,39.0,29.0,43,32,23,30.16,30.03,14,6,18,0.00
2014-4-3,77.2,68.6,58.6,63.0,56.7,48.0,98,68,44,30.09,29.90,19,7,31,1.21
2014-4-4,69.1,63.5,54.4,60.0,56.8,47.0,96,79,65,30.00,29.79,22,8,33,0.64
2014-4-5,61.1,50.4,41.0,47.0,35.1,32.0,78,58,39,30.20,30.01,14,2,16,0.00
2014-4-6,69.0,55.6,43.6,51.0,36.7,32.0,91,51,33,30.15,29.98,9,2,17,0.05
2014-4-7,68.7,55.7,47.3,58.0,51.9,45.0,98,88,69,30.02,29.59,28,6,37,0.94
2014-4-8,61.0,53.5,45.9,45.0,39.3,35.0,78,61,40,29.88,29.78,20,4,29,0.00
2014-4-9,66.2,56.0,47.6,44.0,37.3,30.0,84,54,26,30.20,29.88,13,3,18,0.00
2014-4-10,73.3,60.7,45.7,41.0,37.0,32.0,69,44,25,30.30,30.13,17,6,25,0.00
2014-4-11,74.5,65.7,57.5,52.0,42.6,37.0,74,44,29,30.24,30.10,17,7,21,0.04
2014-4-12,79.7,67.9,54.8,56.0,53.3,51.0,94,63,40,30.27,30.08,14,4,16,0.00
2014-4-13,82.1,72.7,64.2,55.0,52.7,50.0,65,50,38,30.16,29.95,19,7,26,0.00
2014-4-14,71.9,66.6,61.1,59.0,55.5,52.0,91,69,50,29.96,29.79,22,8,26,0.05
2014-4-15,64.4,44.3,34.4,59.0,38.3,23.0,94,80,58,30.26,29.71,12,5,26,0.16
2014-4-16,58.8,44.2,31.2,29.0,24.8,21.0,70,49,32,30.47,30.27,21,4,26,0.00
2014-4-17,68.5,56.4,43.2,36.0,30.8,26.0,53,39,25,30.50,30.34,9,3,12,0.00
2014-4-18,65.2,57.1,50.4,42.0,36.1,29.0,52,46,39,30.41,30.23,12,3,12,0.00
2014-4-19,67.6,60.1,54.2,45.0,41.1,38.0,62,50,38,30.24,30.18,11,3,19,0.00
2014-4-20,76.9,65.0,52.1,46.0,42.0,36.0,70,46,26,30.32,30.17,10,3,13,0.00
2014-4-21,78.3,67.3,51.2,49.0,44.3,37.0,71,45,32,30.21,29.97,10,4,15,0.00
2014-4-22,68.9,64.0,60.0,62.0,55.6,47.0,94,75,48,29.97,29.83,11,4,16,0.07
2014-4-23,72.7,60.7,48.9,46.0,32.8,27.0,55,37,22,30.10,29.90,7,2,12,0.00
2014-4-24,78.6,64.5,50.8,43.0,36.2,29.0,45,36,26,30.11,29.90,14,4,15,0.00
2014-4-25,69.9,65.3,59.6,60.0,51.1,41.0,87,61,39,30.04,29.79,25,6,42,0.05
2014-4-26,83.2,67.7,51.4,53.0,46.0,38.0,90,51,22,30.11,29.99,11,2,13,0.00
2014-4-27,83.7,71.2,58.6,62.0,52.4,45.0,95,53,37,30.05,29.88,13,4,25,0.09
2014-4-28,80.5,69.5,62.3,65.0,62.3,59.0,97,79,52,29.97,29.74,16,4,33,0.06
2014-4-29,80.4,70.1,61.3,65.0,61.1,57.0,96,75,45,29.86,29.69,20,7,35,0.86
2014-4-30,74.9,64.3,56.7,63.0,59.0,55.0,96,84,62,29.96,29.80,20,6,33,0.36
2014-5-1,64.3,56.9,51.2,56.0,44.1,37.0,97,65,40,30.06,29.96,15,5,22,0.00
2014-5-2,66.5,58.3,48.1,46.0,40.8,36.0,77,54,41,30.06,29.94,11,3,17,0.00
2014-5-3,75.1,62.7,48.4,47.0,42.5,40.0,80,50,30,30.07,29.98,18,4,24,0.00
2014-5-4,83.9,71.0,55.8,55.0,48.2,43.0,70,46,28,30.12,29.97,17,6,25,0.00
2014-5-5,85.4,75.3,65.2,58.0,53.5,50.0,61,48,36,30.05,29.88,16,7,23,0.00
2014-5-6,84.1,75.5,66.0,57.0,54.6,53.0,64,49,36,30.02,29.93,14,7,19,0.00
2014-5-7,84.5,75.9,65.6,59.0,55.2,48.0,69,50,30,30.13,30.00,15,6,19,0.00
2014-5-8,84.9,75.6,66.4,60.0,54.8,51.0,62,49,33,30.23,30.11,17,6,24,0.00
2014-5-9,76.3,70.3,65.2,65.0,60.7,57.0,89,73,56,30.13,30.04,21,6,27,0.04
2014-5-10,75.7,65.4,61.4,65.0,61.8,60.0,97,89,61,30.14,30.02,17,5,26,0.18
2014-5-11,84.6,70.7,58.8,67.0,62.7,58.0,98,78,50,30.23,30.11,6,2,10,0.01
2014-5-12,87.4,77.0,65.8,68.0,64.8,61.0,90,68,43,30.22,30.11,13,3,17,0.00
2014-5-13,85.6,75.3,68.6,69.0,65.8,62.0,93,73,52,30.17,30.10,11,3,20,0.00
2014-5-14,85.6,74.6,65.0,67.0,62.8,56.0,96,70,39,30.14,29.94,15,5,27,0.22
2014-5-15,65.1,57.5,49.3,64.0,54.6,45.0,97,90,66,30.15,29.88,14,4,34,0.31
2014-5-16,61.4,52.3,45.7,49.0,42.8,33.0,97,73,37,30.21,30.09,19,4,32,0.09
2014-5-17,60.8,53.5,46.0,50.0,44.3,36.0,88,72,57,30.30,30.19,12,3,18,0.00
2014-5-18,72.6,59.5,49.7,53.0,48.0,45.0,92,68,41,30.31,30.23,9,2,13,0.00
2014-5-19,76.8,63.1,52.0,56.0,50.7,44.0,98,69,33,30.36,30.23,9,2,10,0.00
2014-5-20,79.9,68.6,54.9,61.0,56.7,50.0,88,67,50,30.32,30.12,12,4,24,0.00
2014-5-21,83.8,74.1,65.5,65.0,60.5,57.0,75,63,46,30.19,30.05,16,6,22,0.00
2014-5-22,86.7,74.6,66.8,68.0,62.5,55.0,86,67,53,30.16,29.95,19,5,25,0.01
2014-5-23,83.8,73.3,65.0,66.0,62.3,55.0,92,70,49,30.14,30.07,9,2,11,0.13
2014-5-24,83.9,71.2,60.3,55.0,51.0,45.0,73,52,27,30.22,30.11,8,2,15,0.00
2014-5-25,77.7,68.5,61.8,65.0,56.5,50.0,90,67,45,30.21,30.14,7,2,17,0.17
2014-5-26,82.5,72.5,61.3,67.0,63.2,59.0,94,74,54,30.25,30.13,15,3,18,0.00
2014-5-27,85.5,75.3,67.9,70.0,65.7,59.0,91,73,50,30.17,30.03,13,4,30,0.17
2014-5-28,87.0,76.9,66.6,69.0,64.4,59.0,91,67,40,30.11,30.00,11,3,16,0.00
2014-5-29,88.2,73.8,66.7,69.0,65.4,63.0,91,76,45,30.10,30.02,9,2,26,0.12
2014-5-30,88.6,76.2,66.3,70.0,66.5,65.0,94,74,46,30.14,30.06,5,1,12,0.00
2014-5-31,88.0,77.9,67.6,70.0,66.1,60.0,92,69,40,30.15,30.05,10,2,12,0.00
2014-6-1,85.5,75.4,70.4,68.0,64.9,60.0,88,71,50,30.23,30.14,9,3,18,0.00
2014-6-2,84.4,74.4,64.7,64.0,60.5,58.0,80,63,44,30.26,30.11,11,3,18,0.00
2014-6-3,85.7,73.9,65.9,68.0,62.8,58.0,77,69,52,30.18,30.03,11,4,17,0.00
2014-6-4,83.9,76.4,68.0,71.0,68.2,66.0,92,77,61,30.04,29.84,15,5,24,0.22
2014-6-5,78.6,72.7,68.5,72.0,67.3,61.0,96,83,67,29.94,29.78,23,5,34,0.25
2014-6-6,86.1,74.3,65.7,68.0,65.2,62.0,96,75,52,30.02,29.92,6,1,7,0.01
2014-6-7,88.0,76.7,64.2,67.0,62.2,58.0,83,62,44,30.04,29.92,7,1,15,0.00
2014-6-8,81.4,73.9,66.1,68.0,64.1,57.0,87,72,53,30.00,29.89,17,6,23,0.00
2014-6-9,78.8,70.4,60.7,67.0,62.2,57.0,89,76,62,30.00,29.92,11,2,20,0.00
2014-6-10,86.5,71.7,64.2,71.0,65.8,63.0,97,83,54,30.00,29.89,29,6,49,0.32
2014-6-11,79.2,69.9,63.8,70.0,65.9,63.0,98,88,69,29.94,29.84,12,3,28,0.05
2014-6-12,82.0,71.5,66.0,69.0,65.9,64.0,96,83,60,29.96,29.87,10,3,12,0.01
2014-6-13,77.5,68.6,63.9,70.0,65.8,63.0,98,91,72,30.02,29.91,8,2,17,0.08
2014-6-14,84.9,74.0,63.3,66.0,59.6,55.0,93,64,39,30.11,30.02,6,2,12,0.00
2014-6-15,88.7,75.9,66.1,73.0,62.7,53.0,81,64,50,30.19,30.08,11,3,15,0.00
2014-6-16,92.7,81.3,70.3,72.0,68.2,64.0,93,67,42,30.25,30.12,9,2,13,0.00
2014-6-17,91.1,81.7,71.8,71.0,68.3,67.0,87,65,46,30.24,30.10,11,3,19,0.00
2014-6-18,92.7,80.7,73.2,72.0,68.9,64.0,84,68,46,30.18,30.09,20,4,30,0.00
2014-6-19,89.0,77.6,69.7,73.0,69.2,66.0,94,76,58,30.19,30.11,8,2,27,0.00
2014-6-20,90.9,77.4,68.0,73.0,69.5,67.0,96,78,51,30.14,30.01,9,2,17,0.51
2014-6-21,87.9,74.2,69.4,73.0,69.3,67.0,96,85,55,30.03,29.93,7,2,14,0.18
2014-6-22,90.0,77.1,66.4,72.0,67.3,64.0,98,75,44,30.02,29.91,5,2,12,0.00
2014-6-23,89.9,79.6,70.1,71.0,67.2,65.0,87,67,46,30.07,29.95,20,3,24,0.00
2014-6-24,83.6,75.6,68.0,73.0,68.1,66.0,94,78,59,30.10,29.98,12,4,23,0.29
2014-6-25,84.0,74.3,68.3,74.0,69.2,66.0,97,84,69,30.08,29.98,16,4,21,0.32
2014-6-26,91.1,76.9,68.6,70.0,67.3,63.0,94,74,44,30.11,29.99,8,2,17,0.11
2014-6-27,89.3,76.4,71.6,73.0,68.6,66.0,90,77,55,30.13,30.03,15,2,20,0.00
2014-6-28,86.2,74.7,69.1,72.0,69.9,68.0,97,85,62,30.23,30.13,8,2,15,0.03
2014-6-29,86.1,72.9,68.6,73.0,69.5,67.0,98,89,63,30.26,30.13,17,2,28,0.41
2014-6-30,80.2,73.2,68.3,72.0,69.8,67.0,97,89,76,30.15,30.01,11,3,13,0.00
2014-7-1,89.8,80.1,71.6,74.0,72.4,70.0,96,79,58,30.04,29.90,16,4,17,0.00
2014-7-2,91.0,82.1,73.9,74.0,70.1,65.0,94,69,42,30.01,29.92,15,4,17,0.00
2014-7-3,85.1,75.9,68.3,70.0,61.9,56.0,88,64,41,30.13,29.99,6,2,14,0.00
2014-7-4,81.5,71.7,60.8,60.0,55.3,49.0,88,59,33,30.27,30.13,11,2,17,0.00
2014-7-5,87.9,75.0,63.0,59.0,55.6,51.0,67,52,37,30.32,30.18,9,3,16,0.00
2014-7-6,87.1,77.5,67.0,63.0,60.0,56.0,80,57,35,30.20,30.06,11,3,15,0.00
2014-7-7,88.4,78.7,68.3,69.0,64.0,59.0,86,62,45,30.09,29.95,20,6,25,0.00
2014-7-8,83.8,75.3,70.5,72.0,67.2,61.0,96,77,59,30.05,29.95,17,7,24,0.67
2014-7-9,81.2,71.9,68.1,72.0,68.7,65.0,96,89,69,30.08,30.00,13,5,17,0.14
2014-7-10,87.9,75.4,66.6,71.0,67.4,64.0,98,79,50,30.16,30.07,5,1,8,0.00
2014-7-11,91.9,79.9,67.9,70.0,65.7,62.0,91,64,40,30.23,30.13,4,1,10,0.00
2014-7-12,93.1,80.1,68.1,71.0,67.4,62.0,87,66,42,30.24,30.13,9,2,13,0.00
2014-7-13,91.5,80.2,71.5,73.0,70.5,69.0,92,73,50,30.18,30.04,13,4,23,0.01
2014-7-14,89.2,81.1,73.0,73.0,70.7,69.0,89,72,52,30.05,29.88,14,6,21,0.00
2014-7-15,82.9,75.1,68.9,70.0,65.5,56.0,90,73,50,29.96,29.86,12,4,16,0.00
2014-7-16,79.6,69.8,59.6,57.0,54.2,52.0,81,59,40,30.06,29.95,6,2,11,0.00
2014-7-17,84.5,71.4,59.5,59.0,55.3,53.0,78,58,40,30.13,30.05,14,2,14,0.00
2014-7-18,71.8,67.7,62.4,68.0,62.2,57.0,98,83,62,30.19,30.10,7,2,11,0.68
2014-7-19,75.2,68.3,62.5,69.0,66.1,62.0,98,93,79,30.17,30.07,7,2,10,1.61
2014-7-20,86.6,74.2,65.8,71.0,67.7,64.0,97,82,57,30.13,30.03,8,2,11,0.28
2014-7-21,88.0,77.5,68.1,73.0,70.1,67.0,95,79,56,30.16,30.05,6,2,8,0.00
2014-7-22,90.0,79.7,70.9,73.0,70.5,68.0,93,75,53,30.18,30.07,7,1,12,0.00
2014-7-23,83.7,76.2,72.5,75.0,71.3,67.0,94,85,65,30.13,29.99,11,3,17,0.00
2014-7-24,84.7,74.5,66.2,72.0,68.9,63.0,97,83,61,30.06,29.95,14,3,20,0.00
2014-7-25,84.4,72.7,61.7,67.0,63.1,56.0,96,74,40,30.13,30.02,11,2,14,0.00
2014-7-26,86.9,77.0,65.5,69.0,65.9,64.0,96,70,51,30.10,29.99,13,4,15,0.00
2014-7-27,87.4,78.0,69.0,75.0,70.5,67.0,97,79,63,30.07,29.83,16,6,32,1.34
2014-7-28,82.5,73.0,67.4,70.0,64.4,60.0,98,76,50,30.03,29.90,11,3,25,0.68
2014-7-29,77.2,68.4,62.0,60.0,57.2,52.0,89,69,45,30.13,30.01,8,2,20,0.00
2014-7-30,80.1,68.8,57.1,60.0,56.2,54.0,90,66,46,30.17,30.11,8,2,10,0.00
2014-7-31,84.5,72.1,62.4,66.0,61.7,57.0,90,71,50,30.16,30.10,6,2,10,0.00
2014-8-1,85.4,75.7,65.4,67.0,64.6,62.0,91,70,51,30.14,30.04,7,2,11,0.00
2014-8-2,88.6,75.6,65.4,70.0,64.9,62.0,95,71,43,30.15,30.05,12,2,28,1.32
2014-8-3,85.2,74.0,63.6,69.0,64.0,59.0,97,73,44,30.17,30.09,10,2,12,0.01
2014-8-4,85.5,75.6,64.4,66.0,61.9,58.0,86,64,40,30.17,30.06,8,2,13,0.00
2014-8-5,88.2,77.4,66.1,68.0,63.1,59.0,89,64,37,30.14,30.06,7,1,8,0.00
2014-8-6,86.9,76.2,68.0,74.0,67.3,61.0,89,75,58,30.08,30.00,8,2,16,0.04
2014-8-7,86.3,77.0,69.5,71.0,68.2,65.0,93,75,56,30.09,30.00,6,1,9,0.00
2014-8-8,81.3,73.6,68.7,72.0,69.8,67.0,96,88,74,30.11,30.01,11,2,12,0.18
2014-8-9,72.5,70.8,69.7,70.0,69.2,69.0,97,95,90,30.07,30.03,6,2,9,0.00